Date String (YYYY-MM-DD hh:mm:ss) UTC,Instrument flags,Ambient pressure (hPa),Sample flow (lpm),Bypass flow (lpm),Sample temperature (°C),Ambient temperature (°C),ASC tube jacket temperature (°C),LED temperature (°C),Box temperature (°C),Sample RH (%),Span deviation,Mass concentration (μg/m³),Mass concentration (μg/m³),Mass concentration (μg/m³)
DateTimeUTC,F1_M11,P_M11,Q1_M11,Q2_M11,T1_M11,T2_M11,T3_M11,T4_M11,T5_M11,U1_M11,ZSPAN_M11,X0_M11,X2_M11,X1_M11
2023-02-21 03:00:00,,0817.2,5.00,0.00,22.2,20.6,00.0,31.1,24.0,12.4,0000.0,0001.16,0000.68,0000.46
2023-02-21 03:01:00,,0817.1,5.00,0.00,22.2,20.6,00.0,31.1,24.0,12.4,0000.0,0001.19,0000.70,0000.47
2023-02-21 03:02:00,,0817.1,5.01,0.00,22.2,20.6,00.0,31.1,23.9,12.3,0000.0,0001.27,0000.72,0000.47
2023-02-21 03:03:00,,0817.1,5.00,0.00,22.1,20.6,00.0,31.1,23.9,12.2,0000.0,0001.16,0000.72,0000.48
2023-02-21 03:04:00,,0817.0,4.98,0.00,22.1,20.5,00.0,31.0,23.9,12.3,0000.0,0001.17,0000.72,0000.48
2023-02-21 03:05:00,,0817.1,5.01,0.00,22.1,20.5,00.0,31.0,23.9,12.2,0000.0,0001.30,0000.76,0000.48
2023-02-21 03:06:00,,0816.9,5.01,0.00,22.1,20.5,00.0,31.0,23.9,12.2,0000.0,0001.36,0000.78,0000.48
2023-02-21 03:07:00,,0816.9,5.01,0.00,22.1,20.5,00.0,31.0,23.9,12.3,0000.0,0001.39,0000.79,0000.48
2023-02-21 03:08:00,,0816.9,4.99,0.00,22.1,20.5,00.0,31.0,23.9,12.4,0000.0,0001.31,0000.75,0000.48
2023-02-21 03:09:00,,0816.8,5.00,0.00,22.1,20.5,00.0,31.0,23.9,12.4,0000.0,0001.35,0000.75,0000.47
2023-02-21 03:10:00,,0816.9,5.00,0.00,22.1,20.5,00.0,31.0,23.8,12.4,0000.0,0001.45,0000.75,0000.46
2023-02-21 03:11:00,,0816.8,5.00,0.00,22.1,20.5,00.0,31.0,23.8,12.3,0000.0,0001.54,0000.78,0000.46
2023-02-21 03:12:00,,0816.6,5.00,0.00,22.0,20.5,00.0,31.0,23.8,12.4,0000.0,0001.53,0000.78,0000.46
2023-02-21 03:13:00,,0816.6,5.00,0.00,22.0,20.5,00.0,31.0,23.8,12.3,0000.0,0001.52,0000.78,0000.47
2023-02-21 03:14:00,,0816.5,5.00,0.00,22.0,20.4,00.0,31.0,23.8,12.4,0000.0,0001.46,0000.76,0000.47
2023-02-21 03:15:00,,0816.6,4.99,0.00,22.0,20.4,00.0,31.0,23.8,12.5,0000.0,0001.48,0000.77,0000.47
2023-02-21 03:16:00,,0817.0,5.00,0.00,22.0,20.4,00.0,31.0,23.8,12.5,0000.0,0001.42,0000.76,0000.48
2023-02-21 03:17:00,,0816.9,5.00,0.00,22.0,20.3,00.0,31.0,23.8,12.5,0000.0,0001.36,0000.74,0000.48
2023-02-21 03:18:00,,0816.9,5.00,0.00,22.0,20.4,00.0,31.0,23.8,12.5,0000.0,0001.35,0000.74,0000.48
2023-02-21 03:19:00,,0816.9,4.99,0.00,22.0,20.4,00.0,31.0,23.8,12.5,0000.0,0001.41,0000.77,0000.48
2023-02-21 03:20:00,,0816.7,5.01,0.00,22.0,20.5,00.0,30.9,23.8,12.2,0000.0,0001.39,0000.77,0000.48
2023-02-21 03:21:00,,0816.9,5.00,0.00,22.0,20.5,00.0,30.9,23.8,12.0,0000.0,0001.21,0000.74,0000.48
2023-02-21 03:22:00,,0817.0,4.99,0.00,22.0,20.5,00.0,30.9,23.9,12.0,0000.0,0001.20,0000.74,0000.48
2023-02-21 03:23:00,,0817.0,5.01,0.00,22.0,20.5,00.0,30.9,23.9,12.0,0000.0,0001.26,0000.76,0000.47
2023-02-21 03:24:00,,0817.0,5.00,0.00,22.0,20.6,00.0,30.9,23.9,12.0,0000.0,0001.25,0000.75,0000.46
2023-02-21 03:25:00,,0817.0,5.00,0.00,22.0,20.6,00.0,30.9,23.9,12.0,0000.0,0001.24,0000.75,0000.45
2023-02-21 03:26:00,,0817.0,5.00,0.00,22.0,20.6,00.0,30.9,23.9,12.0,0000.0,0001.19,0000.74,0000.45
2023-02-21 03:27:00,,0817.0,4.99,0.00,22.0,20.6,00.0,30.9,23.9,12.2,0000.0,0001.20,0000.73,0000.44
2023-02-21 03:28:00,,0817.2,5.00,0.00,22.0,20.5,00.0,30.9,23.8,12.6,0000.0,0001.27,0000.75,0000.44
2023-02-21 03:29:00,,0817.1,5.00,0.00,22.0,20.5,00.0,30.9,23.8,12.6,0000.0,0001.42,0000.78,0000.45
2023-02-21 03:30:00,,0817.1,5.01,0.00,22.0,20.5,00.0,30.9,23.8,12.6,0000.0,0001.45,0000.78,0000.45
2023-02-21 03:31:00,,0817.1,5.00,0.00,22.0,20.4,00.0,30.9,23.8,12.5,0000.0,0001.49,0000.78,0000.45
2023-02-21 03:32:00,,0817.1,5.01,0.00,22.0,20.4,00.0,30.9,23.8,12.6,0000.0,0001.55,0000.80,0000.46
2023-02-21 03:33:00,,0817.0,5.01,0.00,22.0,20.4,00.0,30.9,23.8,12.6,0000.0,0001.47,0000.76,0000.47
2023-02-21 03:34:00,,0817.0,5.00,0.00,22.0,20.4,00.0,30.9,23.8,12.5,0000.0,0001.57,0000.76,0000.48
2023-02-21 03:35:00,,0817.0,5.00,0.00,22.0,20.4,00.0,30.9,23.8,12.6,0000.0,0001.59,0000.78,0000.49
2023-02-21 03:36:00,,0817.0,5.00,0.00,22.0,20.4,00.0,30.9,23.8,12.5,0000.0,0001.60,0000.77,0000.49
2023-02-21 03:37:00,,0817.0,5.00,0.00,22.0,20.4,00.0,30.9,23.8,12.3,0000.0,0001.72,0000.81,0000.51
2023-02-21 03:38:00,,0817.0,4.99,0.00,22.0,21.2,00.0,30.8,24.0,12.2,0000.0,0001.76,0000.82,0000.51
2023-02-21 03:39:00,,0817.0,4.96,0.00,22.2,22.4,00.0,30.8,24.3,12.1,0000.0,0001.66,0000.79,0000.51
2023-02-21 03:40:00,,0817.1,4.98,0.00,22.3,23.0,00.0,30.8,24.5,12.1,0000.0,0001.59,0000.80,0000.51
2023-02-21 03:41:00,,0817.1,5.00,0.00,22.4,22.6,00.0,30.9,24.4,12.0,0000.0,0001.62,0000.81,0000.51
2023-02-21 03:42:00,,0817.1,4.98,0.00,22.4,22.2,00.0,31.0,24.4,11.9,0000.0,0001.72,0000.83,0000.51
2023-02-21 03:43:00,,0817.0,5.04,0.00,22.4,21.9,00.0,31.0,24.3,12.1,0000.0,0002.77,0000.81,0000.51
2023-02-21 03:44:00,,0817.0,4.99,0.00,22.4,21.6,00.0,31.1,24.3,12.0,0000.0,0002.82,0000.83,0000.50
2023-02-21 03:45:00,,0817.0,4.98,0.00,22.4,21.5,00.0,31.1,24.3,12.0,0000.0,0002.79,0000.86,0000.51
2023-02-21 03:46:00,,0817.0,5.00,0.00,22.4,21.4,00.0,31.1,24.3,11.9,0000.0,0002.84,0000.87,0000.51
2023-02-21 03:47:00,,0817.1,5.01,0.00,22.4,21.3,00.0,31.1,24.3,12.0,0000.0,0003.00,0000.94,0000.51
2023-02-21 03:48:00,,0817.0,4.99,0.00,22.4,21.2,00.0,31.2,24.3,12.1,0000.0,0003.04,0000.96,0000.51
2023-02-21 03:49:00,,0816.9,5.01,0.00,22.4,21.1,00.0,31.2,24.3,12.1,0000.0,0003.11,0001.00,0000.52
2023-02-21 03:50:00,,0816.8,4.98,0.00,22.4,21.0,00.0,31.2,24.3,12.1,0000.0,0003.24,0001.05,0000.53
2023-02-21 03:51:00,,0816.9,5.01,0.00,22.4,21.0,00.0,31.2,24.2,12.1,0000.0,0003.24,0001.06,0000.52
2023-02-21 03:52:00,,0816.9,5.01,0.00,22.4,21.0,00.0,31.2,24.2,12.2,0000.0,0003.14,0001.03,0000.53
2023-02-21 03:53:00,,0817.0,5.00,0.00,22.4,20.9,00.0,31.2,24.2,12.3,0000.0,0002.99,0000.99,0000.52
2023-02-21 03:54:00,,0817.0,4.99,0.00,22.4,20.9,00.0,31.2,24.2,12.3,0000.0,0001.85,0001.00,0000.52
2023-02-21 03:55:00,,0817.0,5.00,0.00,22.3,20.8,00.0,31.2,24.1,12.3,0000.0,0001.80,0000.99,0000.52
2023-02-21 03:56:00,,0817.0,5.00,0.00,22.3,20.8,00.0,31.2,24.1,12.4,0000.0,0001.83,0000.96,0000.51
2023-02-21 03:57:00,,0817.1,5.00,0.00,22.3,20.7,00.0,31.2,24.1,12.6,0000.0,0001.81,0000.95,0000.51
2023-02-21 03:58:00,,0817.1,4.99,0.00,22.3,20.7,00.0,31.2,24.1,12.7,0000.0,0001.65,0000.89,0000.51
2023-02-21 03:59:00,,0817.0,5.01,0.00,22.3,20.6,00.0,31.2,24.0,12.8,0000.0,0001.58,0000.86,0000.51
